STARLINK-1784 (46687 NORAD) Tracking and Keplerian Element Data

This shows tracking and keplerian element data for the satellite.

Feedback or suggestion? Click here.




ElementValue
Catalog46687
NameSTARLINK-1784
Epoch Orbit180
Epoch Day335.83336806
Epoch Year2020
RAAN256.2705
Inclination53.0552
Eccentricity0.000106
Argument of Perigee60.2136
Mean Anonmoly55.2353
Mean Motion15.62752307
Decay Rate-0.00048793
L11 46687U 20073T 20335.83336806 -.00048793 00000-0 -53028-3 0 9997
L22 46687 53.0552 256.2705 0001060 60.2136 55.2353 15.62752307 1805

Live tracking and technical data element details for STARLINK-1784 (NORAD 46687). STARLINK-1784 can be tracked NOW for your location showing map with azimuth and elevation plus other details from your city location.

Track the satellite on the map from your city or location and see movement details for azimuth, elevation, latitude, longitude, range, height, and movement on the map or in text.







IsCatalogInMostPopularTable: catalog: 46687, numindb: 10
Update: records affected: 1



GetName: 46687 STARLINK-1784

Hit Count: updated at: Tue, 01 Dec 2020 22:02:51 GMT